sat.trackr.live / text

‹ back to catalog

STARLINK-36272

NORAD 68215 · 2026-053J

PAYLOAD ACTIVE UNKNOWN

§ Identity

Operator
Country
US
Launch date
2026-03-17
Launch site
AFWTR
Launch vehicle
Mass (kg)
RCS (m²)

Purposes: comms

External: N2YO · Heavens-Above · Gunter

§ Orbital elements

Epoch: 2026-05-25T03:22:42.412224Z

Period
93.91 min
Inclination
97.2871°
Eccentricity
0.0001962
Mean motion
15.33456970 rev/d
Perigee alt
464.2 km
Apogee alt
466.9 km
Semi-major
6,843.6 km
B*
1.0065e-3
RAAN
20.5757°
Arg perigee
103.2098°
Mean anomaly
256.9364°
Rev number
1,191

§ Raw data

STARLINK-362721 68215U 26053J   26145.14076866  .00032571  00000+0  10065-2 0  99952 68215  97.2871  20.5757 0001962 103.2098 256.9364 15.33456970 11915

JSON: /api/v1/satellites/68215 · /tle

For live sub-satellite position, see the globe view (requires WebGL).

§ Visibility from observer

Set your observer location to see the next 7 days of passes ≥ 10°. The values pass through the URL so the page stays shareable.

No JS? Fill the form by hand. The geolocation button needs JavaScript.